Location: ????????
(55.0808°N, 38.5463°E)
Time: 01:47:41
(UTC+00:00)

Nimbus 3 Rocket - Pass Details

Date: 28 September 2024
Orbit: 1072 x 1131 km, 99.9° (Epoch: 03 October)

Event Time Altitude Azimuth Distance (km) Brightness Sun altitude
Rises 21:30:57 0° 18° (NNE) 3,902 9.1 -37.3°
Reaches altitude 10° 21:33:32 10° 21° (NNE) 2,935 8.2 -37.3°
Enters shadow 21:38:12 48° 38° (NE) 1,392 5.9 -37.2°
